STARLINK-1170, 45073

Orbit data source: Space-Track

STARLINK-1170, 45073 is a payload satellite owned by SpaceX/Seattle (US) in LEO that was launched on Wed, 29 Jan 2020 UTC via an FALCON 9 launch vehicle from the Air Force Eastern Test Range (AFETR). Payload-class satellites include a variety of spacecraft equipped with specific instruments for various scientific and technological missions. These include communications satellites like Starlink; space stations such as the ISS; scientific satellites like the Hubble; Earth observation satellites from companies like Planet Labs, Umbra, and HawkEye 360; GPS; miniature CubeSats for education and research; and military/defense satellites.

Not visible in the next 10 days
Identifier
45073, 2020-006AF
Orbit
LEO
Last TLE update
6 hours ago
Origin
Manufacturer
SpaceX/Seattle
Mission
Partially operational Commercial Communications
Bus & Motor
STARLINK, Unknown motor
Mass
260 kg wet, ~248 kg dry
Launch date (UTC)
2020-01-29 (5 years ago)
Launch vehicle
FALCON 9
Launch site
Air Force Eastern Test Range (AFETR)
Object type
Payload
Rocket body
Debris
Shape & HBR
Box + 1 Pan, 8.86 m
Radar Cross Section
13.562 m², Large (>1 m²)

Expand to show TLE details & history

TLE from 6 hours ago
0 STARLINK-1170
1 45073U 20006AF  25129.00002315  .00229586  00000-0  79580-3 0  9991
2 45073  53.0430 157.2572 0009864  23.3335 218.2324 15.88253895  5811
Epoch: 2025-05-09T00:00Z
Definitive object data (Epoch: 2025-05-09T00:00:02Z)
Latitude
-44.80182°
Longitude
158.17246°
Altitude
327.477 km
Speed
7.709 km/s
True Right ascension
01h 40m 58s
True Declination
-44° 37' 08"
Sunlit
Object was in daylight at TLE epoch
Visualization TLE readout
Latitude
-32.81604°
Longitude
-100.00487°
Altitude
314.461 km
Speed
7.721 km/s
Apparent Right ascension
05h 45m 05s
Apparent Declination
-45° 40' 49"
Sunlit
Object is in daylight
Visualization observer readout
Local Sidereal Time
14:30:27
Azimuth
244.285° WSW
Elevation
-54.392°
Doppler factor
1
Orbital elements
Apogee altitude
314.055 km
Perigee altitude
300.866 km
Semi-major axis
6,685.597 km
Eccentricity
0.0009864
Inclination
53.043°
RAAN
157.2572°
Arg. of periapsis
23.3335°
True anomaly
218.16252°
Mean anomaly
218.2324°
Eccentric anomaly
218.19745°
Mean motion
3.97039 °/min
BSTAR
0.0007958
Orbital period
90.67 mins
Loading maneuver chart data...
Loading SW <> Apogee altitude chart data...
Loading historical data...
Loading historical data...
Loading historical data...
Loading historical data...
Loading historical data...
Loading historical data...
Loading historical data...

STARLINK-1170 Visibility forecast

Observer location: undefined°, undefined°

STARLINK-1170 is not visible in the next 10 days
Span
Click to sort rows by Start time (UTC) header in descending order
Start Az.
Max El. time (UTC)
Max El. Az.
Max El.
End time (UTC)
End Az.
|